User: anonymous   Login
Location: Bear Valley Community Church - Hurst
(32.8460°N, 97.1828°W)
Time: 07:44:03
(UTC+00:00)
Language:

CZ-4B R/B - Orbit

View from above orbital plane
View from above orbital plane
View from above satellite
View from above satellite

Ground track
Ground track

The orbit data is extracted from the following two-line orbital elements,

1 33410U 08053C   22139.77342459  .00004874  00000-0  33154-3 0  9997
2 33410  97.8979 145.9549 0125290 287.6229  71.1344 15.00591945739877
Epoch (UTC): 19 May 2022 18:33:43
Eccentricity: 0.0125290
inclination: 97.8979°
perigee height: 478 km
apogee height: 652 km
right ascension of ascending node: 145.9549°
argument of perigee: 287.6229°
revolutions per day: 15.00591945
mean anomaly at epoch: 71.1344°
orbit number at epoch: 73987

The dashed part of the orbit path shows where the satellite is in the earth's shadow,  

DLR